{"data":{"norad_id":59726,"epoch":"2026-09-21T09:22:55.893216Z","epoch_age_seconds":94386,"freshness":"FRESH","line1":"1 59726U 24088U   26264.39092469  .00000651  00000+0  32749-4 0  9993","line2":"2 59726  53.1611 309.5674 0001282  75.8539 284.2605 15.31699613133662","mean_motion":15.31699613,"eccentricity":0.0001282,"inclination_deg":53.1611,"raan_deg":309.5674,"arg_perigee_deg":75.8539,"mean_anomaly_deg":284.2605,"bstar":3.2749e-5,"rev_number":13366,"period_min":94.013211714509,"perigee_km":469.86312267407,"apogee_km":471.61917503144,"semimajor_km":6848.8781488528,"source":"CELESTRAK","updated_at":"2026-09-22T09:00:49.061219Z"}}